GW0761 Weather Reports


time (UTC)temp
F
wind
direction
speed
knots
gust
knots
rain 1hr
in
rain 24hr
in
rain mn
in
humidity
%
barometer
mb
20260509100712 40 288 0.0 0.0 0.00 0.00 0.00 95 1021.4
20260509095205 41 288 0.0 0.0 0.00 0.00 0.00 95 1021.6
20260509093659 41 288 0.0 0.0 0.00 0.00 0.00 95 1021.6
20260509092143 41 288 0.0 0.0 0.00 0.00 0.00 95 1021.4
20260509090630 42 288 0.0 0.0 0.00 0.00 0.00 95 1021.5
20260509085832 42 288 0.0 0.0 0.00 0.00 0.00 95 1021.7
20260509083618 42 288 0.0 0.0 0.00 0.00 0.00 95 1021.9
20260509083502 42 288 0.0 0.0 0.00 0.00 0.00 95 1022.0
20260509081301 43 288 0.0 0.0 0.00 0.00 0.00 95 1022.1
20260509075106 43 288 0.0 0.0 0.00 0.00 0.00 94 1022.1
20260509074254 43 288 0.0 0.0 0.00 0.00 0.00 94 1022.1
20260509072056 44 288 0.0 0.0 0.00 0.00 0.00 95 1022.1
20260509070547 44 288 0.0 0.0 0.00 0.00 0.00 94 1022.1
20260509065740 45 288 0.0 0.0 0.00 0.00 0.00 94 1022.1
20260509063541 45 288 0.0 0.0 0.00 0.00 0.00 93 1022.4
20260509062039 46 288 0.0 0.0 0.00 0.00 0.00 93 1022.5
20260509060532 46 288 0.0 0.0 0.00 0.00 0.00 93 1022.6
20260509060443 47 288 0.0 0.0 0.00 0.00 0.00 93 1022.6
20260509055027 47 288 0.0 0.0 0.00 0.00 0.00 93 1022.6
20260509053515 47 288 0.0 0.0 0.00 0.00 0.00 92 1022.6
20260509051959 47 288 0.0 0.0 0.00 0.00 0.00 93 1022.6
20260509050457 47 288 0.0 0.0 0.00 0.00 0.00 90 1022.6
20260509044943 48 288 0.0 0.0 0.00 0.00 0.00 90 1022.5
20260509043437 49 288 0.0 0.0 0.00 0.00 0.00 89 1022.5
20260509041938 50 288 0.0 0.0 0.00 0.00 0.00 88 1022.4
20260509040436 51 288 0.0 0.0 0.00 0.00 0.00 87 1022.2
20260509034935 52 288 0.0 0.0 0.00 0.00 0.00 85 1022.1
20260509033435 53 288 0.0 0.9 0.00 0.00 0.00 84 1022.0
20260509032644 55 290 0.0 1.7 0.00 0.00 0.00 81 1022.1
20260509024932 56 359 0.0 4.3 0.00 0.00 0.00 78 1021.9
20260509023431 58 274 0.9 3.5 0.00 0.00 0.00 75 1021.9
20260509021928 59 253 0.0 3.5 0.00 0.00 0.00 73 1021.7
20260509020427 60 130 0.9 2.6 0.00 0.00 0.00 71 1021.6
20260509014927 62 245 0.0 2.6 0.00 0.00 0.00 71 1021.5
20260509013425 62 309 0.0 2.6 0.00 0.00 0.00 69 1021.5
20260509011922 62 102 0.9 4.3 0.00 0.00 0.00 67 1021.6
20260509010420 62 349 1.7 4.3 0.00 0.00 0.00 66 1021.7
20260509004920 61 279 0.9 7.8 0.00 0.00 0.00 68 1021.9
20260509003418 61 46 2.6 7.8 0.00 0.00 0.00 68 1022.1
20260509001917 61 156 2.6 7.8 0.00 0.00 0.00 67 1022.1
20260509000414 61 257 1.7 5.2 0.00 0.00 0.00 66 1022.3
20260508234913 62 278 1.7 4.3 0.00 0.00 0.00 65 1022.3
20260508233410 61 41 1.7 5.2 0.00 0.00 0.00 66 1022.3
20260508231909 61 231 2.6 6.1 0.00 0.00 0.00 65 1022.3
20260508231122 62 324 2.6 5.2 0.00 0.00 0.00 63 1022.3
20260508225600 63 8 1.7 7.0 0.00 0.00 0.00 63 1022.3
20260508223402 63 316 2.6 7.8 0.00 0.00 0.00 62 1022.1
20260508221900 63 250 1.7 8.7 0.00 0.00 0.00 63 1022.0
20260508220358 63 87 1.7 7.0 0.00 0.00 0.00 62 1022.1
20260508214856 63 316 1.7 6.1 0.00 0.00 0.00 62 1022.1
20260508213353 63 8 2.6 7.8 0.00 0.00 0.00 62 1022.1
20260508212550 63 219 1.7 7.8 0.00 0.00 0.00 62 1022.3
20260508210348 63 335 1.7 7.8 0.00 0.00 0.00 61 1022.3
20260508204846 65 345 2.6 7.8 0.00 0.00 0.00 59 1022.0
20260508203342 66 262 1.7 5.2 0.00 0.00 0.00 64 1021.9
20260508201834 64 343 0.9 3.5 0.00 0.00 0.00 60 1021.8
20260508200331 63 18 0.9 3.5 0.00 0.00 0.00 65 1021.8
20260508194831 62 258 1.7 5.2 0.00 0.00 0.00 67 1022.1
20260508193328 62 266 1.7 4.3 0.00 0.00 0.00 63 1022.2
20260508192529 60 13 1.7 3.5 0.00 0.00 0.00 64 1022.2
20260508190324 60 248 0.0 3.5 0.00 0.00 0.00 66 1022.3
20260508184822 57 260 0.0 5.2 0.00 0.00 0.00 70 1022.5
20260508183314 56 356 0.0 2.6 0.00 0.00 0.00 72 1022.5
20260508181806 56 262 1.7 3.5 0.00 0.00 0.00 71 1022.5
20260508180305 55 236 0.0 3.5 0.00 0.00 0.00 73 1022.5
20260508174803 54 241 0.0 2.6 0.00 0.00 0.00 76 1022.7
20260508173301 54 248 0.9 2.6 0.00 0.00 0.00 74 1022.6
20260508172501 54 261 0.9 3.5 0.00 0.00 0.00 75 1022.5
20260508170259 54 264 0.0 3.5 0.00 0.00 0.00 76 1022.4
20260508164759 54 8 0.0 0.0 0.00 0.00 0.00 75 1022.3
20260508163251 53 8 0.0 1.7 0.00 0.00 0.00 80 1022.0
20260508161750 53 349 0.9 1.7 0.00 0.00 0.00 76 1021.8
20260508160241 52 314 0.0 3.5 0.00 0.00 0.00 79 1021.8
20260508154739 52 255 0.0 1.7 0.00 0.00 0.00 81 1021.8
20260508153230 52 253 0.0 0.0 0.00 0.00 0.00 85 1021.9
20260508151734 51 252 0.0 2.6 0.00 0.00 0.00 87 1021.6
20260508150228 51 248 0.0 0.0 0.00 0.00 0.00 87 1021.2
20260508145421 50 248 0.0 0.0 0.00 0.00 0.00 91 1020.8
20260508143215 49 248 0.0 0.0 0.00 0.00 0.00 92 1021.1
20260508141714 49 248 0.0 0.0 0.00 0.00 0.00 93 1020.8
20260508140213 48 248 0.0 0.0 0.00 0.00 0.00 94 1020.9
20260508134711 48 248 0.0 0.0 0.00 0.00 0.00 93 1020.9
20260508133922 48 248 0.0 0.0 0.00 0.00 0.00 94 1020.9
20260508131701 47 248 0.0 0.0 0.00 0.00 0.00 94 1020.9
20260508130159 47 248 0.0 0.0 0.00 0.00 0.00 94 1020.8
20260508124650 47 248 0.0 0.0 0.00 0.00 0.00 94 1021.0
20260508123843 47 248 0.0 0.0 0.00 0.00 0.00 94 1020.9
20260508121640 47 248 0.0 0.0 0.00 0.00 0.00 94 1020.7
20260508120137 47 248 0.0 0.0 0.00 0.00 0.00 94 1020.7
20260508114630 47 248 0.0 0.0 0.00 0.00 0.00 94 1020.4
20260508113128 47 248 0.0 0.0 0.00 0.00 0.00 94 1020.4
20260508111625 47 248 0.0 0.0 0.00 0.00 0.00 94 1020.4
20260508110123 46 248 0.0 0.0 0.00 0.00 0.00 94 1020.1
20260508105321 46 248 0.0 0.0 0.00 0.00 0.00 94 1020.3
20260508103113 46 248 0.0 0.0 0.00 0.00 0.00 94 1020.3